Flag for Poland Weather past 2 weeks in Grudziądz, Poland

Now
38 °F

Fog.


Feels Like: 38 °F
Forecast: 32 / 46 °F
Wind: 2 mph from West

Location: Torun

Current Time: Feb 28, 2015 at 8:55:41 PM

Latest Report: Feb 28, 2015 at 8:00 PM


Visibility: 5 mi

Pressure: 30.09 "Hg

Humidity: 85%

Dew point: 34 °F

Location of GrudziądzLocation

Historic Weather in Grudziądz — Graph

°F

Grudziądz temperature yesterday

Maximum temperature yesterday: 44 °F (at 3:00 PM)
Minimum temperature yesterday: 36 °F (at 12:00 AM)
Average temperature yesterday: 40 °F

Past Weeks' High & Low Weather Summary

 TemperatureHumidityPressure
High47 °F (Feb 21, 2:00 PM)100% (Feb 23, 12:00 AM)30.66 "Hg (Feb 23, 12:00 AM)
Low22 °F (Feb 18, 3:00 AM)44% (Feb 16, 4:00 PM)29.47 "Hg (Feb 21, 2:00 PM)
Average36 °F79%30.08 "Hg
* Reported Feb 13 7:00 PM — Feb 28 7:00 PM, Grudziądz, Weather by CustomWeather, © 2015

Note: Actual official high and low records may vary slightly from our data, if they occured in-between our weather recording intervals... More about our weather records

Advertising

Grudziądz weather history for previous 24 hours

 ConditionsComfort  
Time TempWeatherWind HumidityBarometerVisibility
7:00 PM
Sat, Feb 28
39 °FOvercast.2 mph81%30.09 "Hg6 mi
6:00 PM39 °FOvercast.1 mph79%30.08 "Hg7 mi
5:00 PM39 °FOvercast.1 mph79%30.07 "Hg6 mi
4:00 PM39 °FOvercast.1 mph78%30.07 "Hg7 mi
3:00 PM39 °FFog.3 mph82%30.07 "Hg4 mi
2:00 PM40 °FFog.3 mph82%30.06 "Hg4 mi
1:00 PM40 °FFog.5 mph84%30.06 "Hg2 mi
12:00 PM43 °FFog.5 mph81%30.06 "Hg2 mi
11:00 AM45 °FFog.2 mph85%30.05 "Hg2 mi
10:00 AM42 °FFog.1 mph96%30.04 "Hg1 mi
9:00 AM40 °FFog.1 mph96%30.04 "Hg1 mi
8:00 AM40 °FFog.1 mph96%30.03 "Hg1 mi
7:00 AM39 °FFog.1 mph96%30.02 "Hg1 mi
6:00 AM38 °FFog.1 mph95%30.00 "Hg1 mi
5:00 AM38 °FFog.1 mph95%30.00 "Hg1 mi
3:00 AM40 °FOvercast.1 mph95%30.00 "Hg1 mi
2:00 AM40 °FLight rain. Overcast.1 mph94%30.00 "Hg1 mi
1:00 AM41 °FLight rain. Overcast.1 mph93%30.00 "Hg1 mi
12:00 AM41 °FFog.2 mph92%30.00 "Hg2 mi
11:00 PM
Fri, Feb 27
41 °FFog.2 mph92%30.01 "Hg2 mi
9:00 PM41 °FFog.2 mph91%30.00 "Hg2 mi
8:00 PM41 °FFog.1 mph91%30.00 "Hg2 mi
Weather by CustomWeather, © 2015

See weather overviewHow to use our weather pages